Hourly Data Report for October 12, 2015

All times are specified in Local Standard Time (LST). Add 1 hour to adjust for Daylight Saving Time where and when it is observed.

ST LEONARD CS
NEW BRUNSWICK

47°09'28.050" N
67°49'55.014" W
245.00 m
810I001
71019
WIY

Download Data

Hourly Data (October 2015)
Hourly Data Report for October 12, 2015
Temp Definition
°C
Dew Point Temp Definition
°C
Rel Hum Definition
%
Wind Dir Definition
10's deg

Wind Spd Definition
km/h
Visibility Definition
km
Stn Press Definition
kPa
Hmdx Definition


Wind Chill Definition


Weather Definition


TIME
00:00 7.3 6.5 95 19 9   97.76     LegendNANA
01:00 7.4 6.5 94 18 8   97.78     LegendNANA
02:00 7.1 6.3 95 15 8   97.77     LegendNANA
03:00 7.2 6.3 94 15 9   97.72     LegendNANA
04:00 7.1 6.4 95 12 5   97.74     LegendNANA
05:00 7.5 6.7 95 12 6   97.74     LegendNANA
06:00 7.7 6.7 94 14 7   97.80     LegendNANA
07:00 7.6 6.9 95 8 5   97.80     LegendNANA
08:00 7.9 7.0 94 13 8   97.82     LegendNANA
09:00 8.6 7.4 93 14 8   97.83     LegendNANA
10:00 10.3 8.6 89 16 10   97.87     LegendNANA
11:00 12.0 9.2 83 16 10   97.86     LegendNANA
12:00 12.9 9.8 81 17 12   97.84     LegendNANA
13:00 13.0 9.8 81 16 10   97.77     LegendNANA
14:00 13.4 10.0 80 14 6   97.73     LegendNANA
15:00 13.8 10.8 82 14 9   97.71     LegendNANA
16:00 15.8 10.1 69 18 17   97.71     LegendNANA
17:00 15.1 10.3 73 15 12   97.70     LegendNANA
18:00 13.2 10.3 83 12 11   97.70     LegendNANA
19:00 12.1 9.7 85 13 11   97.74     LegendNANA
20:00 12.4 10.0 86 13 14   97.74     LegendNANA
21:00 12.5 10.1 86 13 12   97.74     LegendNANA
22:00 11.7 9.8 89 13 13   97.74     LegendNANA
23:00 11.7 9.8 89 14 12   97.76     LegendNANA

Notes on Data Quality.

Legend

  • E = Estimated
  • M = Missing
  • NA = Not Available
  • ‡ = Partner data that is not subject to review by the National Climate Archives
Date modified: